Coimbatore International Airport

Jump to: basic info | weather | frequencies | runways | comments

Related pages: nearby airports | nearby navaids | notams | map

Basic information (top)

Codes: CJB VOCB
Location: lon 11.030000, lat 77.043404, elev 1,324 ft / 404 m msl
Status: medium_airport
Scheduled airline service: yes
Links: Wikipedia Mobile

Weather (top)

Current conditions (rec'd 2014/10/23 01:30Z):

VOCB 230130Z 00000KT 2000 BR SCT015 BKN080 23/22 Q1015 NOSIG

Airport forecast (rec'd 2014/10/20 06:00Z):

TAF VOCB 200300Z 2006/2112 04010KT 4000 -DZ/HZ SCT015 BKN080 
      TEMPO 2006/2012 2000 -TSRA/RA SCT015 FEW020CB OVC080 
      BECMG 2013/2014 VRB03KT 3000 RA 
      TEMPO 2100/2103 2000 BR 
      BECMG 2106/2107 04010KT

Frequencies (top)

Verify before use: may be inaccurate or out of date.

APP: 120.05 MHz (AFTER 0430 HRS UTC)
ATIS: 128.05 MHz ()
TWR: 118.15 MHz ()

Runways (top)

05/23: 8,480 x 150 ft (2,585 x 46 m) — paved — lighted

Latest comments (top)

re: Flying Club: Dude, i been looking for someone ... [read]

more international flights: is there any near future plan to have ... [read]

Flying Club: Anyone interested in starting a flying ... [read]

More... (top)

See also NOTAMs and nearby airports and navaids, or visit the Coimbatore International Airport page at the main OurAirports website..